This demonstration page uses our WeatherBlox Daily Observations layout. Learn more.

Left ArrowRight Arrow

44.8408, -93.29828

Hourly Observations for May 28, 2023

Temp ( °F °C ) Dew Point ( °F °C ) Humidity (%) Winds ( mph kmh ) Pressure ( in mb ) Visibility ( mi km ) Precip ( " mm )
12:53 am 00:53 Clear 64 17.8 39 3.9 40 40 SE 9 15 30.13 1020 10 16 0.00 0.00
1:53 am 01:53 Clear 64 17.8 38 3.3 38 38 SSE 7 11 30.14 1021 10 16 0.00 0.00
2:53 am 02:53 Clear 67 19.4 37 2.8 33 33 S 7 11 30.14 1021 10 16 0.00 0.00
3:53 am 03:53 Clear 62 16.7 39 3.9 42 42 ESE 6 9 30.14 1021 10 16 0.00 0.00
4:53 am 04:53 Clear 59 15 39 3.9 47 47 ESE 7 11 30.13 1020 10 16 0.00 0.00
5:53 am 05:53 Mostly Sunny 58 14.4 40 4.4 51 51 SE 6 9 30.13 1020 10 16 0.00 0.00
6:53 am 06:53 Mostly Sunny 59 15 46 7.8 62 62 ESE 5 7 30.12 1020 10 16 0.00 0.00
7:53 am 07:53 Partly Cloudy 62 16.7 43 6.1 50 50 ESE 5 7 30.13 1020 10 16 0.00 0.00
8:53 am 08:53 Mostly Cloudy 66 18.9 42 5.6 42 42 SE 6 9 30.14 1021 10 16 0.00 0.00
9:53 am 09:53 Mostly Cloudy 70 21.1 43 6.1 38 38 S 5 7 30.13 1020 10 16 0.00 0.00
10:53 am 10:53 Mostly Cloudy 76 24.4 44 6.7 32 32 ESE 8 13 30.12 1020 10 16 0.00 0.00
11:53 am 11:53 Partly Cloudy 79 26.1 43 6.1 28 28 undefined N/A 30.11 1020 10 16 0.00 0.00
12:53 pm 12:53 Partly Cloudy 81 27.2 36 2.2 20 20 SSE 13 20 30.09 1019 10 16 0.00 0.00
1:53 pm 13:53 Partly Cloudy 84 28.9 38 3.3 19 19 SE 14 22 30.07 1018 10 16 0.00 0.00
2:53 pm 14:53 Mostly Cloudy 82 27.8 39 3.9 22 22 ESE 15 24 30.05 1018 10 16 0.00 0.00
3:53 pm 15:53 Mostly Cloudy 82 27.8 39 3.9 22 22 E 15 24 30.04 1017 10 16 0.00 0.00
4:53 pm 16:53 Mostly Cloudy 79 26.1 41 5 26 26 ESE 15 24 30.02 1017 10 16 0.00 0.00
5:53 pm 17:53 Mostly Cloudy 79 26.1 42 5.6 27 27 SE 12 19 30.01 1016 10 16 0.00 0.00
6:53 pm 18:53 Mostly Cloudy 78 25.6 42 5.6 28 28 ESE 14 22 30.00 1016 10 16 0.00 0.00
7:53 pm 19:53 Mostly Cloudy 76 24.4 42 5.6 30 30 SE 18 30 30.00 1016 10 16 0.00 0.00
8:53 pm 20:53 Mostly Cloudy 73 22.8 43 6.1 34 34 ESE 12 19 29.99 1016 10 16 0.00 0.00
9:53 pm 21:53 Mostly Cloudy 71 21.7 44 6.7 38 38 SE 9 15 30.00 1016 10 16 0.00 0.00
10:53 pm 22:53 Mostly Cloudy 70 21.1 42 5.6 36 36 SE 10 17 30.00 1016 10 16 0.00 0.00
11:53 pm 23:53 Partly Cloudy 69 20.6 42 5.6 37 37 SE 8 13 30.00 1016 10 16 0.00 0.00

Powered by Vaisala Xweather